Outer Banks, North Carolina, United States
Lat: 35.98N, Lon: 75.65W
Wx Zone: NCZ103
Local Info
Past Weather Observations for Today

NOTE: This archive is for the closest National Weather Service station to Outer Banks. Information may differ from the station used for current weather conditions.

Click here for Long-term Archive

Time Weather Temperature Dewpoint Humidity Pressure Winds Precip Visibility
18:35
Partly Cloudy
39°F / 4°C 21°F / -6°C 48% 30.09 in
(1019 mb)
NW 9.2 mph
(NW 15 kph)
- 10SM
18:15
Clear
39°F / 4°C 23°F / -5°C 52% 30.09 in
(1019 mb)
NW 9.2 mph
(NW 15 kph)
- 10SM
17:55
Partly Cloudy
39°F / 4°C 23°F / -5°C 52% 30.09 in
(1019 mb)
NW 8.1 mph
(NW 13 kph)
- 10SM
17:35
Mostly Cloudy
39°F / 4°C 25°F / -4°C 56% 30.06 in
(1018 mb)
NW 11.5 mph
(NW 19 kph)
- 10SM
17:15
Mostly Cloudy
39°F / 4°C 27°F / -3°C 61% 30.06 in
(1018 mb)
NW 11.5 mph
(NW 19 kph)
- 10SM
16:55
Mostly Cloudy
41°F / 5°C 27°F / -3°C 57% 30.06 in
(1018 mb)
WNW 12.7 mph
(WNW 20 kph)
- 10SM
16:35
Mostly Cloudy
41°F / 5°C 28°F / -2°C 61% 30.04 in
(1017 mb)
WNW 12.7 mph
(WNW 20 kph)
- 10SM
16:15
Overcast
39°F / 4°C 30°F / -1°C 70% 30.04 in
(1017 mb)
NW 6.9 mph
(NW 11 kph)
- 10SM
15:55
Overcast
Drizzle
41°F / 5°C 28°F / -2°C 61% 30.04 in
(1017 mb)
NW 9.2 mph
(NW 15 kph)
- 10SM
15:35
Mostly Cloudy
43°F / 6°C 28°F / -2°C 57% 30.01 in
(1016 mb)
WNW 8.1 mph
(WNW 13 kph)
- 10SM
15:15
Mostly Cloudy
43°F / 6°C 28°F / -2°C 57% 30.01 in
(1016 mb)
WNW 8.1 mph
(WNW 13 kph)
- 10SM
14:55
Mostly Cloudy
43°F / 6°C 28°F / -2°C 57% 30.01 in
(1016 mb)
W 10.4 mph
(W 17 kph)
- 10SM
14:35
Overcast
45°F / 7°C 28°F / -2°C 53% 30.01 in
(1016 mb)
W 10.4 mph
(W 17 kph)
- 10SM
14:15
Overcast
43°F / 6°C 30°F / -1°C 61% 30.01 in
(1016 mb)
SSW 9.2 mph
(SSW 15 kph)
- 10SM
13:55
Overcast
41°F / 5°C 30°F / -1°C 66% 30.01 in
(1016 mb)
W 8.1 mph
(W 13 kph)
- 10SM
13:35
Overcast
Drizzle
41°F / 5°C 30°F / -1°C 66% 30.01 in
(1016 mb)
WNW 6.9 mph
(WNW 11 kph)
- 10SM
13:15
Overcast
Drizzle
41°F / 5°C 30°F / -1°C 66% 30.01 in
(1016 mb)
WNW 10.4 mph
(WNW 17 kph)
- 10SM
12:55
Overcast
41°F / 5°C 30°F / -1°C 66% 30.01 in
(1016 mb)
W 9.2 mph
(W 15 kph)
- 10SM
12:35
Overcast
41°F / 5°C 30°F / -1°C 66% 29.98 in
(1015 mb)
SSW 8.1 mph
(SSW 13 kph)
- 10SM
12:15
Overcast
39°F / 4°C 28°F / -2°C 65% 29.98 in
(1015 mb)
Calm - 10SM
11:55
Overcast
41°F / 5°C 28°F / -2°C 61% 29.98 in
(1015 mb)
N 4.6 mph
(N 7 kph)
- 10SM
11:35
Overcast
41°F / 5°C 28°F / -2°C 61% 29.98 in
(1015 mb)
NE 9.2 mph
(NE 15 kph)
- 10SM
11:15
Overcast
41°F / 5°C 27°F / -3°C 57% 29.98 in
(1015 mb)
N 6.9 mph
(N 11 kph)
- 10SM
10:55
Overcast
43°F / 6°C 27°F / -3°C 53% 29.98 in
(1015 mb)
N 10.4 mph
(N 17 kph)
- 10SM
10:35
Overcast
43°F / 6°C 27°F / -3°C 53% 29.98 in
(1015 mb)
NNW 5.8 mph
(NNW 9 kph)
- 10SM
10:15
Mostly Cloudy
43°F / 6°C 27°F / -3°C 53% 29.98 in
(1015 mb)
N 9.2 mph
(N 15 kph)
- 10SM
09:55
Partly Cloudy
43°F / 6°C 27°F / -3°C 53% 29.95 in
(1014 mb)
N 8.1 mph
(N 13 kph)
- 10SM
09:35
Partly Cloudy
43°F / 6°C 28°F / -2°C 57% 29.95 in
(1014 mb)
N 8.1 mph
(N 13 kph)
- 10SM
09:15
Partly Cloudy
43°F / 6°C 27°F / -3°C 53% 29.95 in
(1014 mb)
N 3.5 mph
(N 6 kph)
- 10SM
08:55
Partly Cloudy
43°F / 6°C 28°F / -2°C 57% 29.95 in
(1014 mb)
N 9.2 mph
(N 15 kph)
- 10SM
08:35
Clear
43°F / 6°C 28°F / -2°C 57% 29.92 in
(1013 mb)
N 8.1 mph
(N 13 kph)
- 10SM
08:15
Partly Cloudy
41°F / 5°C 30°F / -1°C 66% 29.92 in
(1013 mb)
N 10.4 mph
(N 17 kph)
- 10SM
07:55
Partly Cloudy
43°F / 6°C 32°F / 0°C 66% 29.92 in
(1013 mb)
N 9.2 mph
(N 15 kph)
- 10SM
07:35
Mostly Cloudy
41°F / 5°C 32°F / 0°C 70% 29.92 in
(1013 mb)
NNW 10.4 mph
(NNW 17 kph)
- 10SM
07:15
Overcast
41°F / 5°C 32°F / 0°C 70% 29.89 in
(1012 mb)
NNW 9.2 mph
(NNW 15 kph)
- 10SM
06:55
Overcast
41°F / 5°C 32°F / 0°C 70% 29.89 in
(1012 mb)
NNW 5.8 mph
(NNW 9 kph)
- 10SM
06:35
Mostly Cloudy
41°F / 5°C 32°F / 0°C 70% 29.86 in
(1011 mb)
NNW 9.2 mph
(NNW 15 kph)
- 10SM
06:15
Partly Cloudy
41°F / 5°C 32°F / 0°C 70% 29.86 in
(1011 mb)
NNW 8.1 mph
(NNW 13 kph)
- 10SM
05:55
Clear
41°F / 5°C 34°F / 1°C 76% 29.83 in
(1010 mb)
NNW 8.1 mph
(NNW 13 kph)
- 10SM
05:35
Clear
41°F / 5°C 34°F / 1°C 76% 29.83 in
(1010 mb)
NNW 5.8 mph
(NNW 9 kph)
- 10SM
05:15
Partly Cloudy
41°F / 5°C 37°F / 3°C 87% 29.83 in
(1010 mb)
NNW 8.1 mph
(NNW 13 kph)
- 10SM
04:55
Mostly Cloudy
41°F / 5°C 37°F / 3°C 87% 29.8 in
(1009 mb)
NNW 10.4 mph
(NNW 17 kph)
- 10SM
04:35
Overcast
43°F / 6°C 39°F / 4°C 87% 29.77 in
(1008 mb)
NW 8.1 mph
(NW 13 kph)
- 10SM
04:15
Overcast
41°F / 5°C 39°F / 4°C 93% 29.77 in
(1008 mb)
NW 8.1 mph
(NW 13 kph)
- 10SM
03:55
Overcast
41°F / 5°C 39°F / 4°C 93% 29.77 in
(1008 mb)
NW 11.5 mph
(NW 19 kph)
- 7SM
03:35
Overcast
41°F / 5°C 39°F / 4°C 93% 29.77 in
(1008 mb)
NW 9.2 mph
(NW 15 kph)
- 7SM
03:15
Overcast
41°F / 5°C 37°F / 3°C 87% 29.74 in
(1007 mb)
NW 6.9 mph
(NW 11 kph)
- 7SM
02:55
Overcast
Fog And Mist
41°F / 5°C 37°F / 3°C 87% 29.74 in
(1007 mb)
NNW 6.9 mph
(NNW 11 kph)
- 5SM
02:35
Overcast
Fog And Mist
39°F / 4°C 37°F / 3°C 93% 29.74 in
(1007 mb)
NNW 5.8 mph
(NNW 9 kph)
- 5SM
02:15
Overcast
39°F / 4°C 37°F / 3°C 93% 29.74 in
(1007 mb)
NNW 9.2 mph
(NNW 15 kph)
- 7SM
01:55
Overcast
39°F / 4°C 37°F / 3°C 93% 29.74 in
(1007 mb)
N 10.4 mph
(N 17 kph)
- 7SM
01:35
Overcast
39°F / 4°C 37°F / 3°C 93% 29.74 in
(1007 mb)
N 9.2 mph
(N 15 kph)
- 7SM
01:15
Overcast
39°F / 4°C 37°F / 3°C 93% 29.74 in
(1007 mb)
N 8.1 mph
(N 13 kph)
- 7SM
00:55
Overcast
Fog And Mist
39°F / 4°C 37°F / 3°C 93% 29.74 in
(1007 mb)
N 10.4 mph
(N 17 kph)
- 5SM
00:35
Overcast
39°F / 4°C 37°F / 3°C 93% 29.74 in
(1007 mb)
NNE 6.9 mph
(NNE 11 kph)
- 7SM
00:15
Overcast
Fog And Mist
39°F / 4°C 37°F / 3°C 93% 29.71 in
(1006 mb)
NNE 9.2 mph
(NNE 15 kph)
- 4SM
Time Weather Temperature Dewpoint Humidity Pressure Winds Precip Visibility


Weather for websites

WeatherForYou.com, LLC is not responsible for any damages or problems caused by this service. Current weather conditions are obtained from the closest station including government and personal stations which may have varying degrees of accuracy. Weather forecasts are derived from the NOAA NDFD. Like all things, this site belongs to Jesus Christ... He just trusts me to maintain it. If you have any questions or comments email webmaster@weatherforyou.com

Copyright © 2015, WeatherForYou.com LLC. All rights reserved.